Location: Smithers
(54.7670°N, 127.1670°W)
Time: 00:18:47
(UTC-08:00)

Daily predictions for brighter satellites

Satellite Brightness Start Highest point End
(mag) Time Altitude Azimuth Time Altitude Azimuth Time Altitude Azimuth
CZ-4C R/B 4.2 04:08:00 29° SE 04:08:00 29° SE 04:11:34 10° SE
Cosmos 2082 Rocket 3.8 04:09:18 30° NE 04:09:18 30° NE 04:13:28 10° E
USA 234 3.9 04:11:47 10° ENE 04:17:21 49° ESE 04:17:21 49° ESE
ATLAS 3B R/B 3.5 04:29:58 40° N 04:29:58 40° N 04:35:32 10° ENE
CENTAUR R/B 3.0 04:31:46 61° NNE 04:31:46 61° NNE 04:38:01 10° NE
Cosmos 1833 Rocket 3.7 04:34:55 43° NE 04:34:55 43° NE 04:40:14 10° ESE
Cosmos 2263 Rocket 3.4 04:49:49 32° NNE 04:49:49 32° NNE 04:52:55 10° NNE
CZ-4B R/B 3.8 04:43:01 10° NNE 04:48:13 51° E 04:48:16 51° ESE
Okean O Rocket 4.0 04:45:10 10° NNE 04:46:11 17° NNE 04:46:11 17° NNE
Cosmos 2227 Rocket 4.2 04:54:05 17° N 04:54:05 17° N 04:56:50 10° NNE
COSMOS 2455 2.9 05:01:25 69° NNE 05:01:25 69° NNE 05:06:46 10° NE
Cosmos 614 Rocket 4.5 05:02:47 54° ESE 05:02:50 54° ESE 05:07:48 10° NNE
Cosmos 1709 Rocket 4.1 05:03:50 28° S 05:07:23 76° E 05:13:47 10° NNE
Cosmos 2297 Rocket 4.1 05:13:17 17° N 05:13:17 17° N 05:16:36 10° NNE
Cosmos 2278 Rocket 3.6 05:12:51 10° S 05:17:58 36° ESE 05:23:07 10° NE
USA 238 DEB 4.4 05:20:06 37° NNW 05:21:47 42° N 05:28:29 10° ENE
USA 238 4.4 05:20:12 37° NNW 05:21:52 42° N 05:28:35 10° ENE
IRS-1C Rocket 4.1 05:17:18 10° NNE 05:22:38 76° ESE 05:24:27 42° S
NOSS 3-2 (A) 4.3 05:23:39 38° NNW 05:24:59 42° N 05:32:00 10° ENE
Cosmos 1844 Rocket 2.5 05:25:48 72° SSW 05:26:23 89° SE 05:32:01 10° NNE
ADEOS II 3.9 05:28:47 10° N 05:30:29 19° N 05:30:29 19° N
BREEZE-M DEB (TANK) 4.3 05:34:34 17° SE 05:34:34 17° SE 05:36:51 10° E
Cosmos 1626 4.5 05:38:29 16° SSE 05:38:29 16° SSE 05:39:17 10° SSE
Cosmos 1743 Rocket 4.3 05:36:12 19° N 05:39:08 52° ENE 05:43:22 10° SSE
SL-08 ROCKET BODY 4.3 05:36:03 10° S 05:41:56 90° NNW 05:47:56 10° N
CZ-4B DEB 4.2 05:41:41 10° NNE 05:47:04 58° WNW 05:47:30 56° W
DMSP B5D1-3 4.4 05:43:30 10° SSE 05:48:38 90° W 05:52:50 16° NNW
Cosmos 1844 3.6 05:48:30 39° SW 05:50:43 82° NW 05:56:26 10° NNE
CZ-4C R/B 4.0 05:53:15 25° SW 05:53:15 25° SW 05:58:03 10° SSW
Cosmos 407 Rocket 4.0 05:52:38 41° NW 05:52:38 41° NW 05:57:10 10° NNE
Cosmos 2082 Rocket 2.0 05:51:10 42° NW 05:53:07 76° WSW 05:58:43 10° SSE
Cosmos 1140 Rocket 3.3 05:52:33 57° WSW 05:53:21 66° WNW 05:58:32 10° NNE
Cosmos 2074 Rocket 4.1 05:49:18 10° S 05:55:30 75° E 06:01:44 10° NNE
Meteor 1-16 Rocket 4.1 05:51:23 10° S 05:56:55 84° ESE 06:02:21 10° NNE
NOSS 3-2 (C) 4.4 05:55:14 31° NW 05:57:47 42° N 06:04:50 10° ENE
Cosmos 1703 3.1 05:58:23 70° NNW 05:58:48 85° W 06:02:46 10° S
PAYLOAD A 4.0 05:55:45 10° NNE 06:00:43 76° ESE 06:05:29 10° S
USA 234 3.2 05:54:57 10° ENE 06:01:33 86° NNW 06:04:42 34° WSW
Cosmos 676 Rocket 4.1 06:01:42 48° WNW 06:02:10 50° NW 06:07:15 10° NNE
IDEFIX/ARIANE 42P 2.7 05:56:54 10° NNE 06:02:14 78° ESE 06:07:30 10° SSW
Cosmos 2181 Rocket 4.3 05:57:26 10° NNW 06:03:15 41° W 06:08:59 10° SSW
SL-27 R/B 4.3 06:05:56 21° S 06:05:56 21° S 06:07:23 10° S
Meteor 1-11 4.2 05:59:50 10° NNW 06:05:32 62° W 06:11:15 10° S
Cosmos 2208 Rocket 4.5 06:06:03 41° WSW 06:06:03 41° WSW 06:11:03 10° S
ATLAS CENTAUR R/B 3.5 06:11:10 14° SSW 06:11:10 14° SSW 06:12:06 10° SSW
Cosmos 304 Rocket 3.8 06:08:08 46° WNW 06:09:11 58° WSW 06:13:53 10° S
Cosmos 1954 Rocket 4.1 06:09:33 42° W 06:10:38 49° NW 06:15:45 10° NNE
COSMO-SKYMED 1 3.9 06:09:52 10° SSW 06:11:58 24° SW 06:11:58 24° SW
Cosmos 1850 Rocket 3.9 06:08:40 10° SSW 06:13:58 83° WNW 06:19:20 10° NNE
Cosmos 468 Rocket 4.2 06:14:27 39° WNW 06:15:40 46° WSW 06:20:37 10° S
CZ-2C R/B 2.4 06:12:56 10° NNE 06:17:34 78° ESE 06:22:15 10° SSW
Cosmos 1484 Rocket 4.4 06:15:28 10° NNE 06:18:56 35° E 06:22:24 10° SSE
Cosmos 1833 Rocket 2.8 06:16:39 32° WNW 06:18:58 51° WSW 06:24:24 10° S
Thor Agena Rocket 3.6 06:13:56 10° SSE 06:19:12 82° ENE 06:24:33 10° NNW
NOAA 6 3.9 06:14:29 10° NNE 06:19:42 73° WNW 06:24:52 10° SSW
Cosmos 1814 Rocket 3.9 06:16:52 26° NW 06:19:43 63° WSW 06:24:49 10° S
ATLAS 3B R/B 3.4 06:17:13 22° NW 06:21:15 44° NNE 06:27:35 10° E
Cosmos 292 Rocket 4.3 06:17:20 14° NNW 06:21:27 58° ENE 06:26:15 10° SE
Cosmos 2058 2.8 06:18:59 21° NNW 06:21:43 65° W 06:25:52 10° S
Cosmos 841 Rocket 3.3 06:18:37 20° NNW 06:22:14 79° WSW 06:27:23 10° SSE
CENTAUR R/B 3.4 06:18:57 28° WNW 06:22:16 45° N 06:29:41 10° ENE
Okean-O 2.5 06:18:53 10° NNE 06:23:19 72° WNW 06:27:44 10° SSW
BREEZE-M DEB (TANK) 3.3 06:21:22 27° WSW 06:23:43 42° SSW 06:26:27 10° ESE
Cosmos 2084 Rocket 4.4 06:23:40 28° NNW 06:24:12 29° NNW 06:27:44 10° NE
USA 229 DEB 4.2 06:18:41 10° SSW 06:25:20 60° SE 06:32:11 10° NE
USA 229 4.2 06:18:48 10° SSW 06:25:26 60° SE 06:32:17 10° NE
Okean O Rocket 3.3 06:22:06 10° N 06:23:39 18° NNW 06:23:39 18° NNW
Cosmos 1842 Rocket 3.9 06:23:09 10° S 06:27:36 69° E 06:32:05 10° NNE
CZ-4B R/B 3.7 06:23:55 10° N 06:28:40 34° WNW 06:30:11 29° W
Meteor 2-15 4.4 06:24:00 10° NNW 06:30:07 87° W 06:36:11 10° S
EO 1 Del DPAF 4.3 06:27:43 10° SSW 06:30:13 28° SW 06:30:13 28° SW
Cosmos 1763 Rocket 3.5 06:28:22 24° NW 06:31:13 53° WSW 06:36:10 10° S
Radarsat Rocket 4.1 06:25:18 10° NNE 06:32:16 86° WNW 06:38:25 10° SSW
Cosmos 2263 Rocket 3.5 06:31:31 20° NW 06:32:37 21° NNW 06:36:47 10° NNE
Meteor 2-1 Rocket 4.5 06:27:18 10° S 06:32:47 72° E 06:38:26 10° NNE
Timation 1 Rocket 4.3 06:29:22 13° SW 06:34:42 63° NW 06:40:42 10° NNE
CZ-4 R/B 3.4 06:34:04 10° NNE 06:37:49 32° E 06:41:29 10° SSE
Cosmos 2327 Rocket 4.4 06:32:16 10° SSW 06:38:23 69° WNW 06:44:31 10° N
Cosmos 2227 Rocket 4.2 06:35:55 10° NNW 06:39:32 17° NNE 06:43:09 10° NE
Cosmos-2242 3.3 06:36:25 10° SW 06:40:31 43° WNW 06:44:39 10° N
Cosmos 2151 3.3 06:40:40 14° NNW 06:44:11 43° W 06:48:16 10° SSW
COSMOS 2455 3.7 06:44:34 22° WNW 06:47:27 33° NNW 06:52:54 10° NE
Cosmos 1300 4.5 06:44:43 10° SSE 06:48:13 35° E 06:51:45 10° NNE
Cosmos 2154 Rocket 4.0 06:42:43 10° SSW 06:48:57 85° WNW 06:55:16 10° N
COSMOS 2487 2.5 06:52:51 20° NW 06:55:12 60° WSW 06:58:42 10° SSE
Meteor 2-15 Rocket 4.4 06:51:15 10° NNW 06:57:19 69° W 07:03:19 10° S
CSL-04 Rocket 4.2 06:52:25 10° NNE 06:57:49 64° ESE 07:03:05 10° S
SWAS 4.4 06:55:04 15° NW 06:58:35 83° SW 07:02:53 10° SSE
Cosmos 2297 Rocket 4.1 06:55:37 10° NNW 06:59:24 18° NNE 07:03:11 10° ENE
Ariane Rocket 3.7 06:55:51 10° NNE 07:00:55 59° ESE 07:05:58 10° S
SMAP 3.4 06:56:33 10° NNE 07:01:14 70° ESE 07:05:53 10° S
Cosmos 2278 Rocket 2.3 06:56:19 10° SW 07:01:54 56° NW 07:07:30 10° NNE
Cosmos 1633 Rocket 3.8 06:57:37 10° N 07:01:56 54° ENE 07:06:15 10° SSE
Cosmos 1500 Rocket 4.1 06:58:01 10° NNW 07:02:05 36° W 07:06:06 10° SSW
Cosmos 1741 Rocket 4.4 07:03:18 10° WSW 07:08:13 39° NW 07:13:09 10° NNE
Cosmos 2184 Rocket 4.3 07:02:28 10° SW 07:08:25 43° WNW 07:14:28 10° N
In-Cosmos 22 Rocket 4.2 07:04:01 10° NNW 07:09:24 85° ENE 07:14:50 10° SSE
MSX 3.9 07:04:31 10° N 07:10:08 56° WNW 07:15:43 10° SW
Cosmos 1844 Rocket 3.6 07:07:30 16° W 07:11:00 28° NW 07:15:50 10° NNE
SL-8 Rocket 4.3 07:06:52 10° S 07:12:59 73° E 07:19:09 10° NNE
USA 238 DEB 4.1 07:07:33 13° NW 07:13:56 61° NNE 07:21:01 10° ESE
USA 238 4.1 07:07:38 13° NW 07:14:02 61° NNE 07:21:06 10° ESE
Cosmos 1726 2.0 07:10:45 10° SSW 07:14:28 77° WNW 07:18:12 10° N
Meteor 2-14 Rocket 4.5 07:08:57 10° S 07:15:07 89° W 07:21:19 10° NNE
Timation 2 Rocket 4.1 07:10:29 10° NW 07:16:37 56° WSW 07:22:31 10° SSE
NOSS 3-2 (A) 4.4 07:11:02 13° NW 07:17:14 52° NNE 07:24:49 10° E
NOSS 3-1 (C) 3.9 07:12:15 10° SSW 07:18:05 66° SE 07:24:50 10° NE
Nadezhda 3 Rocket 4.5 07:12:43 10° NNW 07:18:32 39° W 07:24:17 10° SSW
Cosmos 2221 2.4 07:14:39 10° SSW 07:18:56 78° WNW 07:23:18 10° N
Cosmos 2218 Rocket 4.4 07:15:08 10° S 07:21:24 71° E 07:27:38 10° NNE
Cosmos 540 Rocket 3.7 07:17:27 10° NW 07:22:22 48° WSW 07:27:16 10° S
Sich 1 2.9 07:19:38 10° NNW 07:23:57 79° W 07:28:16 10° S
Cosmos 1908 3.7 07:20:30 10° SW 07:24:11 39° WNW 07:27:55 10° N
Cosmos 1295 Rocket 4.4 07:24:15 10° SSW 07:30:20 68° WNW 07:36:27 10° N
AQUARIUS 4.1 07:25:55 10° NNE 07:30:26 69° WNW 07:34:54 10° SSW
METEOR-M 4.5 07:26:54 10° NNE 07:32:18 73° ESE 07:37:38 10° S
Cosmos 1607 4.1 07:27:16 10° NW 07:33:45 68° SW 07:40:08 10° SSE
CSL-04 Debris 4.2 07:30:26 10° NNE 07:35:58 78° WNW 07:41:28 10° SSW
Cosmos 2082 Rocket 3.7 07:33:03 10° WNW 07:36:18 17° W 07:39:42 10° SW
Cosmos 1825 4.1 07:33:33 10° N 07:36:54 29° ENE 07:40:14 10° SE
Cosmos 2219 4.4 07:36:03 10° NNW 07:41:14 35° NE 07:46:25 10° ESE
IDEFIX/ARIANE 42P 3.6 07:37:10 10° N 07:41:20 24° NW 07:45:30 10° WSW
USA 234 3.4 07:37:59 10° E 07:44:30 75° N 07:51:03 10° W
Cosmos 1455 4.0 07:42:11 10° SSE 07:45:46 36° E 07:49:22 10° NNE
CZ-4 R/B 4.4 07:42:29 10° NNE 07:46:41 84° WNW 07:50:51 10° SSW
ALOS 2.6 07:43:41 10° NNE 07:48:24 73° ESE 07:53:04 10° S
Cosmos 1892 2.7 07:44:48 10° NNW 07:48:42 76° W 07:52:31 10° S
Cosmos 2369 Rocket 3.6 07:43:57 10° S 07:49:13 45° ESE 07:54:34 10° NE
NOSS 3-2 (C) 4.3 07:43:09 10° NW 07:50:02 56° NNE 07:57:45 10° ESE
Iridium 19 4.5 07:48:08 10° SSW 07:50:35 48° W 07:53:26 10° N
Cosmos 1470 Rocket 3.7 07:47:04 10° N 07:51:34 86° ENE 07:56:04 10° SSE
Cosmos 1484 Rocket 3.6 07:50:06 10° N 07:53:19 28° WNW 07:56:32 10° WSW
Cosmos 1943 Rocket 4.2 07:48:55 10° S 07:54:00 35° ESE 07:59:06 10° NE
YAOGAN 1 2.5 07:49:43 10° NNE 07:54:04 74° WNW 07:58:23 10° SSW
CZ-2C R/B 3.5 07:52:01 10° N 07:55:23 20° NW 07:58:46 10° WSW
SeaSat 1 3.9 07:50:45 10° NE 07:55:29 44° ESE 08:00:12 10° S
Cosmos 2366 rocket 4.1 07:49:33 10° SSW 07:55:56 79° WNW 08:02:18 10° N
